TimeEDT,TemperatureF,Dew PointF,Humidity,Sea Level PressureIn,VisibilityMPH,Wind Direction,Wind SpeedMPH,Gust SpeedMPH,PrecipitationIn,Events,Conditions,WindDirDegrees,DateUTC
12:54 AM,73.9,71.1,91,30.13,10.0,Calm,Calm,-,N/A,,Overcast,0,2013-07-04 04:54:00
1:54 AM,75.0,70.0,84,30.12,10.0,SSE,4.6,-,N/A,,Overcast,150,2013-07-04 05:54:00
2:54 AM,73.9,70.0,87,30.12,10.0,SE,4.6,-,N/A,,Overcast,140,2013-07-04 06:54:00
3:54 AM,75.0,70.0,84,30.12,10.0,SSE,5.8,-,N/A,,Overcast,150,2013-07-04 07:54:00
4:54 AM,75.9,69.1,79,30.12,10.0,Calm,Calm,-,N/A,,Overcast,0,2013-07-04 08:54:00
5:54 AM,73.9,70.0,87,30.13,10.0,East,3.5,-,N/A,,Overcast,100,2013-07-04 09:54:00
6:54 AM,75.9,70.0,82,30.14,10.0,Calm,Calm,-,N/A,,Overcast,0,2013-07-04 10:54:00
7:54 AM,80.1,71.1,74,30.15,10.0,SSE,4.6,-,N/A,,Mostly Cloudy,160,2013-07-04 11:54:00
8:54 AM,81.0,71.1,72,30.15,10.0,SW,9.2,-,N/A,,Mostly Cloudy,220,2013-07-04 12:54:00
9:54 AM,81.0,70.0,69,30.15,10.0,SSW,9.2,-,N/A,,Mostly Cloudy,210,2013-07-04 13:54:00
10:54 AM,82.0,71.1,69,30.15,10.0,SSW,10.4,-,N/A,,Overcast,210,2013-07-04 14:54:00
11:54 AM,82.0,70.0,67,30.13,10.0,WSW,10.4,-,N/A,,Mostly Cloudy,250,2013-07-04 15:54:00
12:54 PM,82.9,71.1,67,30.13,10.0,West,12.7,-,N/A,,Mostly Cloudy,280,2013-07-04 16:54:00
1:54 PM,79.0,68.0,69,30.13,10.0,NW,13.8,-,0.00,Rain,Light Rain,310,2013-07-04 17:54:00
2:54 PM,80.1,72.0,76,30.13,10.0,WNW,11.5,-,0.00,,Mostly Cloudy,300,2013-07-04 18:54:00
3:54 PM,82.0,72.0,71,30.11,10.0,Calm,Calm,-,N/A,,Scattered Clouds,0,2013-07-04 19:54:00
4:54 PM,84.0,71.1,65,30.10,10.0,Variable,3.5,-,N/A,,Scattered Clouds,0,2013-07-04 20:54:00
5:54 PM,84.9,70.0,61,30.09,10.0,West,8.1,-,N/A,,Scattered Clouds,260,2013-07-04 21:54:00
6:54 PM,84.9,69.1,59,30.09,10.0,WNW,6.9,-,N/A,,Scattered Clouds,290,2013-07-04 22:54:00
7:54 PM,82.9,71.1,67,30.09,10.0,West,5.8,-,N/A,,Scattered Clouds,260,2013-07-04 23:54:00
8:54 PM,79.0,71.1,77,30.10,10.0,Calm,Calm,-,N/A,,Partly Cloudy,0,2013-07-05 00:54:00
9:54 PM,77.0,71.6,83,30.10,10.0,ESE,3.5,-,N/A,,Partly Cloudy,120,2013-07-05 01:54:00
10:54 PM,75.9,71.1,85,30.12,10.0,East,4.6,-,N/A,,Scattered Clouds,90,2013-07-05 02:54:00
11:54 PM,75.9,71.1,85,30.12,10.0,SE,6.9,-,N/A,,Mostly Cloudy,140,2013-07-05 03:54:00